Regional Weather Roundup
Issued by NWS

Home | Current Version | Previous Version | Graphics & Text | Print | Product List | Glossary On
Versions: 1 2 3 4 5 6 7 8 9 10 11 12 13 14 15 16 17 18 19 20 21 22 23 24 25 26 27 28 29 30 31 32 33 34 35 36 37 38 39 40 41 42 43 44 45 46 47 48 49 50
000
ASUS43 KFSD 021010
RWRSD

WEATHER ROUNDUP FOR SOUTH DAKOTA
NATIONAL WEATHER SERVICE SIOUX FALLS SD
500 AM CDT TUE JUN 02 2015

NOTE: "FAIR" INDICATES FEW OR NO CLOUDS BELOW 12,000 FEET WITH NO
SIGNIFICANT WEATHER AND/OR OBSTRUCTIONS TO VISIBILITY.


SDZ001>005-009-010-012>017-021100-
NORTHWEST AND NORTH CENTRAL SOUTH DAKOTA

CITY           SKY/WX    TMP DP  RH WIND       PRES   REMARKS
BUFFALO          N/A     60  55  83 NE20      29.76R
FAITH            N/A     66  52  60 SE6       29.76F
MOBRIDGE       CLOUDY    67  62  84 VRB3      29.76R
$$

SDZ012>016-024>037-041>051-057-063-072>074-021100-
SOUTHWEST AND SOUTH CENTRAL SOUTH DAKOTA

CITY           SKY/WX    TMP DP  RH WIND       PRES   REMARKS
RAPID CTY ARPT MOCLDY    57  53  86 SE13      29.80S
PIERRE         CLOUDY    64  60  87 SE10      29.77R
CUSTER         PTCLDY    60  44  55 SW5       29.93F
ELLSWORTH AFB  MOCLDY    61  53  74 NW9       29.78F
PHILIP         MOCLDY    65  56  72 SW7       29.76S
PINE RIDGE     PTCLDY    63  51  65 SW12      29.86R
SPEARFISH      FAIR      59  52  77 CALM      29.84S
WINNER         FAIR      65  58  78 S13       29.82F
$$

SDZ004>011-016>023-039-040-021100-
NORTHEAST SOUTH DAKOTA

CITY           SKY/WX    TMP DP  RH WIND       PRES   REMARKS
ABERDEEN       CLOUDY    62  53  72 S20       29.82F
WATERTOWN      MOCLDY    59  51  75 S15       29.91F
BROOKINGS      CLOUDY    57  48  72 S14       29.97S
SISSETON         N/A     62  52  69 S18       29.85F
$$

SDZ017-020-022-023-036>040-048>070-021100-
SOUTHEAST SOUTH DAKOTA

CITY           SKY/WX    TMP DP  RH WIND       PRES   REMARKS
SIOUX FALLS    MOCLDY    60  51  72 S13G20    29.97F
HURON          MOCLDY    62  53  72 SE17      29.86F
CHAMBERLAIN    CLOUDY    62  59  87 SE9       29.83S
MITCHELL       MOCLDY    63  54  72 SE17      29.89F
YANKTON        PTCLDY    61  52  72 SE15      29.94F
$$

ABBREVIATIONS USED IN REMARKS
   TC - TEMPERATURE IN CELSIUS
  WCI - WIND CHILL INDEX
   HX - HEAT INDEX
  VSB - VISIBILITY




USA.gov is the U.S. government's official web portal to all federal, state and local government web resources and services.